BTK6267 WAPP-WAAA

Flight info

Callsign BTK6267
Flight time 1h 19m
Altitude 31997
Route HOLBA W53 SUGTA
Aircraft A320/M-SDE3FGHIRWY/LB1

Departure

Time 2026-05-04 02:12
Airport Pattimura International Airport (WAPP)

Arrival

Time 2026-05-04 03:31
Airport Sultan Hasanuddin International Airport (WAAA)
Time Latitude Longitude Altitude Speed Heading
2026-05-04 01:49 -3.70628 128.08820 36 ft 0 kts 359°
2026-05-04 02:03 -3.70650 128.08819 36 ft 4 kts
2026-05-04 02:03 -3.70676 128.08813 32 ft 4 kts 27°
2026-05-04 02:03 -3.70694 128.08798 36 ft 4 kts 76°
2026-05-04 02:03 -3.70695 128.08787 36 ft 1 kts 91°
2026-05-04 02:04 -3.70695 128.08786 36 ft 0 kts 91°
2026-05-04 02:06 -3.70696 128.08843 35 ft 14 kts 91°
2026-05-04 02:07 -3.70697 128.08957 36 ft 18 kts 90°
2026-05-04 02:07 -3.70714 128.09079 35 ft 18 kts 122°
2026-05-04 02:07 -3.70788 128.09176 35 ft 17 kts 93°
2026-05-04 02:07 -3.70720 128.09272 37 ft 18 kts 44°
2026-05-04 02:08 -3.70623 128.09368 36 ft 22 kts 45°
2026-05-04 02:08 -3.70508 128.09482 36 ft 24 kts 45°
2026-05-04 02:08 -3.70387 128.09603 34 ft 26 kts 45°
2026-05-04 02:08 -3.70259 128.09701 34 ft 20 kts 26°
2026-05-04 02:09 -3.70231 128.09737 34 ft 3 kts 129°
2026-05-04 02:09 -3.70250 128.09739 34 ft 3 kts 183°
2026-05-04 02:09 -3.70268 128.09721 33 ft 0 kts 225°
2026-05-04 02:11 -3.70309 128.09679 34 ft 23 kts 225°
2026-05-04 02:11 -3.70625 128.09368 36 ft 100 kts 225°
2026-05-04 02:12 -3.71270 128.08734 36 ft 157 kts 223°
2026-05-04 02:12 -3.72118 128.07931 516 ft 168 kts 223°
2026-05-04 02:12 -3.72939 128.07109 1235 ft 166 kts 224°
2026-05-04 02:12 -3.73740 128.06291 1968 ft 164 kts 224°
2026-05-04 02:13 -3.74597 128.05442 2342 ft 183 kts 221°
2026-05-04 02:13 -3.75612 128.04551 2613 ft 206 kts 219°
2026-05-04 02:13 -3.76777 128.03567 2923 ft 231 kts 219°
2026-05-04 02:13 -3.78039 128.02503 3573 ft 241 kts 219°
2026-05-04 02:14 -3.79277 128.01356 4387 ft 246 kts 228°
2026-05-04 02:14 -3.80195 127.99894 5173 ft 251 kts 245°
2026-05-04 02:14 -3.80658 127.98193 5984 ft 257 kts 262°
2026-05-04 02:14 -3.80643 127.96386 6698 ft 266 kts 272°
2026-05-04 02:15 -3.80514 127.94469 7146 ft 283 kts 272°
2026-05-04 02:15 -3.80382 127.92478 7843 ft 290 kts 272°
2026-05-04 02:15 -3.80251 127.90450 8615 ft 294 kts 272°
2026-05-04 02:15 -3.80120 127.88394 9388 ft 298 kts 272°
2026-05-04 02:16 -3.79990 127.86310 10106 ft 303 kts 272°
2026-05-04 02:16 -3.79854 127.84125 10369 ft 326 kts 272°
2026-05-04 02:16 -3.79709 127.81783 10555 ft 348 kts 272°
2026-05-04 02:16 -3.79553 127.79324 11036 ft 358 kts 272°
2026-05-04 02:17 -3.79390 127.76825 11672 ft 362 kts 272°
2026-05-04 02:17 -3.79225 127.74299 12315 ft 366 kts 272°
2026-05-04 02:17 -3.79058 127.71740 12955 ft 370 kts 272°
2026-05-04 02:17 -3.78890 127.69126 13587 ft 373 kts 272°
2026-05-04 02:18 -3.78727 127.66552 14153 ft 377 kts 272°
2026-05-04 02:18 -3.78559 127.63923 14719 ft 380 kts 272°
2026-05-04 02:18 -3.78388 127.61241 15290 ft 383 kts 272°
2026-05-04 02:18 -3.78219 127.58569 15840 ft 386 kts 272°
2026-05-04 02:19 -3.78048 127.55881 16387 ft 389 kts 272°
2026-05-04 02:19 -3.77874 127.53164 16923 ft 392 kts 272°
2026-05-04 02:19 -3.77698 127.50433 17458 ft 395 kts 272°
2026-05-04 02:19 -3.77519 127.47682 17979 ft 398 kts 272°
2026-05-04 02:20 -3.77339 127.44915 18463 ft 400 kts 273°
2026-05-04 02:20 -3.77158 127.42120 18879 ft 403 kts 273°
2026-05-04 02:20 -3.76978 127.39313 19298 ft 406 kts 272°
2026-05-04 02:20 -3.76940 127.36479 19697 ft 408 kts 264°
2026-05-04 02:21 -3.77353 127.33664 20100 ft 410 kts 258°
2026-05-04 02:21 -3.77881 127.30851 20521 ft 413 kts 258°
2026-05-04 02:21 -3.78415 127.28012 20924 ft 416 kts 258°
2026-05-04 02:21 -3.78951 127.25163 21305 ft 419 kts 258°
2026-05-04 02:22 -3.79487 127.22284 21703 ft 422 kts 259°
2026-05-04 02:22 -3.80024 127.19388 22102 ft 424 kts 259°
2026-05-04 02:22 -3.80562 127.16481 22467 ft 427 kts 259°
2026-05-04 02:22 -3.81107 127.13545 22851 ft 430 kts 259°
2026-05-04 02:23 -3.81656 127.10597 23232 ft 432 kts 259°
2026-05-04 02:23 -3.82206 127.07635 23583 ft 435 kts 259°
2026-05-04 02:23 -3.82761 127.04651 23877 ft 437 kts 259°
2026-05-04 02:23 -3.83317 127.01647 24192 ft 439 kts 259°
2026-05-04 02:24 -3.83873 126.98638 24501 ft 441 kts 259°
2026-05-04 02:24 -3.84435 126.95607 24795 ft 444 kts 258°
2026-05-04 02:24 -3.85003 126.92558 25075 ft 446 kts 259°
2026-05-04 02:24 -3.85573 126.89498 25383 ft 448 kts 259°
2026-05-04 02:25 -3.86146 126.86430 25684 ft 450 kts 259°
2026-05-04 02:25 -3.86722 126.83342 25952 ft 453 kts 259°
2026-05-04 02:25 -3.87296 126.80235 26238 ft 455 kts 259°
2026-05-04 02:25 -3.87873 126.77119 26546 ft 456 kts 259°
2026-05-04 02:26 -3.88454 126.73988 26802 ft 458 kts 258°
2026-05-04 02:26 -3.89036 126.70847 27087 ft 460 kts 259°
2026-05-04 02:26 -3.89619 126.67693 27393 ft 461 kts 259°
2026-05-04 02:26 -3.90202 126.64520 27666 ft 464 kts 258°
2026-05-04 02:27 -3.90791 126.61332 27921 ft 466 kts 258°
2026-05-04 02:27 -3.91385 126.58135 28198 ft 468 kts 259°
2026-05-04 02:27 -3.91981 126.54927 28450 ft 470 kts 259°
2026-05-04 02:27 -3.92577 126.51706 28674 ft 472 kts 259°
2026-05-04 02:28 -3.93176 126.48462 28939 ft 474 kts 259°
2026-05-04 02:28 -3.93778 126.45219 29234 ft 474 kts 259°
2026-05-04 02:28 -3.94382 126.41969 29483 ft 476 kts 259°
2026-05-04 02:28 -3.94973 126.38713 29724 ft 477 kts 259°
2026-05-04 02:29 -3.95557 126.35433 29966 ft 479 kts 259°
2026-05-04 02:29 -3.96150 126.32093 30158 ft 481 kts 259°
2026-05-04 02:29 -3.96728 126.28837 30362 ft 482 kts 259°
2026-05-04 02:29 -3.97320 126.25494 30654 ft 481 kts 259°
2026-05-04 02:30 -3.97898 126.22197 30962 ft 480 kts 259°
2026-05-04 02:30 -3.98459 126.18909 31261 ft 479 kts 259°
2026-05-04 02:30 -3.99023 126.15636 31596 ft 477 kts 259°
2026-05-04 02:30 -3.99581 126.12365 31863 ft 476 kts 259°
2026-05-04 02:31 -4.00684 126.05852 31937 ft 473 kts 259°
2026-05-04 02:31 -4.01783 125.99363 31936 ft 472 kts 259°
2026-05-04 02:32 -4.02882 125.92892 31936 ft 472 kts 259°
2026-05-04 02:32 -4.03973 125.86411 31936 ft 472 kts 259°
2026-05-04 02:33 -4.05079 125.79936 31934 ft 472 kts 259°
2026-05-04 02:33 -4.06178 125.73464 31932 ft 472 kts 259°
2026-05-04 02:34 -4.07271 125.66986 31936 ft 472 kts 259°
2026-05-04 02:34 -4.08371 125.60514 31937 ft 471 kts 259°
2026-05-04 02:35 -4.09461 125.54035 31939 ft 471 kts 259°
2026-05-04 02:35 -4.10561 125.47561 31939 ft 471 kts 259°
2026-05-04 02:36 -4.11657 125.41086 31940 ft 471 kts 259°
2026-05-04 02:36 -4.12742 125.34612 31940 ft 471 kts 259°
2026-05-04 02:37 -4.13838 125.28140 31936 ft 471 kts 259°
2026-05-04 02:37 -4.14428 125.21617 31959 ft 469 kts 262°
2026-05-04 02:38 -4.15480 125.15179 31959 ft 467 kts 258°
2026-05-04 02:38 -4.16651 125.08791 31962 ft 465 kts 259°
2026-05-04 02:39 -4.17699 125.02396 31957 ft 464 kts 260°
2026-05-04 02:39 -4.18644 124.96010 31953 ft 464 kts 260°
2026-05-04 02:40 -4.19429 124.90655 31951 ft 463 kts 260°
2026-05-04 02:40 -4.20398 124.84277 31948 ft 463 kts 259°
2026-05-04 02:41 -4.21380 124.77913 31947 ft 463 kts 260°
2026-05-04 02:41 -4.22360 124.71540 31944 ft 462 kts 260°
2026-05-04 02:42 -4.23327 124.65171 31940 ft 462 kts 260°
2026-05-04 02:42 -4.24300 124.58808 31940 ft 462 kts 260°
2026-05-04 02:43 -4.25273 124.52445 31939 ft 462 kts 260°
2026-05-04 02:43 -4.26236 124.46073 31935 ft 462 kts 260°
2026-05-04 02:44 -4.27202 124.39706 31935 ft 462 kts 260°
2026-05-04 02:44 -4.28174 124.33343 31934 ft 462 kts 260°
2026-05-04 02:45 -4.29149 124.26967 31938 ft 463 kts 260°
2026-05-04 02:45 -4.30126 124.20556 31933 ft 463 kts 260°
2026-05-04 02:46 -4.31091 124.14185 31934 ft 463 kts 260°
2026-05-04 02:46 -4.32068 124.07805 31931 ft 463 kts 260°
2026-05-04 02:47 -4.33033 124.01426 31934 ft 463 kts 260°
2026-05-04 02:47 -4.34000 123.95040 31937 ft 463 kts 260°
2026-05-04 02:48 -4.34960 123.88657 31929 ft 464 kts 260°
2026-05-04 02:48 -4.35927 123.82267 31931 ft 464 kts 260°
2026-05-04 02:49 -4.36900 123.75878 31936 ft 464 kts 260°
2026-05-04 02:49 -4.37866 123.69482 31934 ft 464 kts 260°
2026-05-04 02:50 -4.38837 123.63093 31944 ft 464 kts 260°
2026-05-04 02:50 -4.39806 123.56699 31938 ft 464 kts 260°
2026-05-04 02:51 -4.40778 123.50259 31937 ft 464 kts 260°
2026-05-04 02:51 -4.41746 123.43852 31940 ft 465 kts 260°
2026-05-04 02:52 -4.42727 123.37463 31946 ft 465 kts 259°
2026-05-04 02:52 -4.43749 123.31063 31946 ft 464 kts 259°
2026-05-04 02:53 -4.44785 123.24677 31951 ft 464 kts 259°
2026-05-04 02:53 -4.45810 123.18290 31951 ft 464 kts 259°
2026-05-04 02:54 -4.46826 123.11898 31945 ft 465 kts 259°
2026-05-04 02:54 -4.47845 123.05502 31944 ft 465 kts 259°
2026-05-04 02:55 -4.49374 122.95902 31942 ft 465 kts 259°
2026-05-04 02:56 -4.50388 122.89503 31942 ft 465 kts 259°
2026-05-04 02:56 -4.51404 122.83107 31945 ft 465 kts 259°
2026-05-04 02:57 -4.52421 122.76712 31943 ft 465 kts 259°
2026-05-04 02:57 -4.53435 122.70306 31941 ft 465 kts 259°
2026-05-04 02:58 -4.54446 122.63910 31944 ft 465 kts 259°
2026-05-04 02:58 -4.55461 122.57513 31943 ft 465 kts 260°
2026-05-04 02:59 -4.56479 122.51106 31941 ft 465 kts 259°
2026-05-04 02:59 -4.57496 122.44711 31937 ft 465 kts 260°
2026-05-04 03:00 -4.58512 122.38303 31937 ft 465 kts 260°
2026-05-04 03:00 -4.59522 122.31897 31938 ft 465 kts 260°
2026-05-04 03:01 -4.60539 122.25491 31937 ft 466 kts 260°
2026-05-04 03:01 -4.61549 122.19080 31937 ft 466 kts 260°
2026-05-04 03:02 -4.62558 122.12675 31940 ft 466 kts 260°
2026-05-04 03:02 -4.63567 122.06264 31938 ft 466 kts 259°
2026-05-04 03:03 -4.64721 121.99876 31936 ft 465 kts 252°
2026-05-04 03:03 -4.67033 121.93850 31926 ft 464 kts 246°
2026-05-04 03:04 -4.69468 121.87857 31931 ft 464 kts 246°
2026-05-04 03:04 -4.71890 121.81858 31936 ft 464 kts 246°
2026-05-04 03:05 -4.74313 121.75855 31936 ft 465 kts 246°
2026-05-04 03:05 -4.76744 121.69852 31929 ft 465 kts 246°
2026-05-04 03:06 -4.79171 121.63844 31929 ft 465 kts 246°
2026-05-04 03:06 -4.81602 121.57824 31925 ft 465 kts 246°
2026-05-04 03:07 -4.84011 121.51853 31932 ft 465 kts 246°
2026-05-04 03:07 -4.86437 121.45842 31931 ft 465 kts 247°
2026-05-04 03:08 -4.88864 121.39828 31931 ft 465 kts 247°
2026-05-04 03:08 -4.91290 121.33815 31931 ft 465 kts 247°
2026-05-04 03:09 -4.93706 121.27810 31930 ft 465 kts 247°
2026-05-04 03:09 -4.96132 121.21802 31938 ft 465 kts 247°
2026-05-04 03:10 -4.98558 121.15784 31933 ft 465 kts 247°
2026-05-04 03:10 -5.00979 121.09773 31935 ft 465 kts 247°
2026-05-04 03:11 -5.03405 121.03756 31934 ft 465 kts 247°
2026-05-04 03:11 -5.05831 120.97734 31931 ft 465 kts 247°
2026-05-04 03:12 -5.08266 120.91673 31932 ft 465 kts 247°
2026-05-04 03:12 -5.10687 120.85658 31934 ft 465 kts 247°
2026-05-04 03:12 -5.11904 120.82645 31819 ft 466 kts 247°
2026-05-04 03:13 -5.13122 120.79627 31578 ft 466 kts 247°
2026-05-04 03:13 -5.14336 120.76621 31245 ft 465 kts 247°
2026-05-04 03:13 -5.15416 120.73568 30525 ft 465 kts 255°
2026-05-04 03:13 -5.15813 120.71450 29765 ft 470 kts 263°
2026-05-04 03:14 -5.16176 120.68150 28456 ft 479 kts 264°
2026-05-04 03:14 -5.16526 120.64800 27298 ft 486 kts 264°
2026-05-04 03:14 -5.16873 120.61455 26737 ft 477 kts 264°
2026-05-04 03:14 -5.17219 120.58179 26134 ft 470 kts 264°
2026-05-04 03:15 -5.17734 120.54992 25934 ft 454 kts 253°
2026-05-04 03:15 -5.18952 120.52128 25658 ft 441 kts 242°
2026-05-04 03:15 -5.20377 120.49434 25178 ft 435 kts 241°
2026-05-04 03:15 -5.21585 120.46672 24668 ft 430 kts 254°
2026-05-04 03:16 -5.22249 120.43786 24129 ft 427 kts 258°
2026-05-04 03:16 -5.22856 120.40840 23593 ft 424 kts 258°
2026-05-04 03:16 -5.23486 120.37963 23011 ft 420 kts 253°
2026-05-04 03:16 -5.24561 120.35260 22441 ft 416 kts 245°
2026-05-04 03:17 -5.25742 120.32624 21881 ft 413 kts 245°
2026-05-04 03:17 -5.26918 120.30012 21379 ft 409 kts 245°
2026-05-04 03:17 -5.28079 120.27431 20876 ft 405 kts 245°
2026-05-04 03:17 -5.29231 120.24857 20366 ft 402 kts 245°
2026-05-04 03:18 -5.30091 120.22204 19899 ft 399 kts 260°
2026-05-04 03:18 -5.30485 120.19462 19221 ft 400 kts 262°
2026-05-04 03:18 -5.30859 120.16687 18148 ft 402 kts 262°
2026-05-04 03:18 -5.31218 120.13957 17728 ft 386 kts 262°
2026-05-04 03:19 -5.31568 120.11300 17235 ft 383 kts 262°
2026-05-04 03:19 -5.31916 120.08654 16724 ft 381 kts 262°
2026-05-04 03:19 -5.32262 120.06022 16207 ft 380 kts 262°
2026-05-04 03:19 -5.32604 120.03400 15695 ft 379 kts 262°
2026-05-04 03:20 -5.32948 120.00779 15187 ft 379 kts 262°
2026-05-04 03:20 -5.33297 119.98156 14670 ft 378 kts 262°
2026-05-04 03:20 -5.33643 119.95555 14161 ft 377 kts 262°
2026-05-04 03:20 -5.33988 119.92939 13614 ft 377 kts 262°
2026-05-04 03:21 -5.34329 119.90330 13063 ft 376 kts 262°
2026-05-04 03:21 -5.34671 119.87741 12567 ft 372 kts 261°
2026-05-04 03:21 -5.35006 119.85225 12064 ft 356 kts 261°
2026-05-04 03:21 -5.35326 119.82813 11555 ft 342 kts 261°
2026-05-04 03:22 -5.35632 119.80490 11052 ft 330 kts 261°
2026-05-04 03:22 -5.35928 119.78241 10583 ft 320 kts 261°
2026-05-04 03:22 -5.36214 119.76062 10308 ft 310 kts 261°
2026-05-04 03:22 -5.36492 119.73952 9930 ft 301 kts 261°
2026-05-04 03:23 -5.36768 119.71861 9821 ft 303 kts 261°
2026-05-04 03:23 -5.37047 119.69757 9692 ft 304 kts 261°
2026-05-04 03:23 -5.37325 119.67654 9558 ft 303 kts 261°
2026-05-04 03:23 -5.37601 119.65554 9370 ft 305 kts 261°
2026-05-04 03:24 -5.37875 119.63449 8988 ft 303 kts 261°
2026-05-04 03:24 -5.38135 119.61355 8584 ft 302 kts 265°
2026-05-04 03:24 -5.37972 119.59263 8170 ft 301 kts 284°
2026-05-04 03:24 -5.37195 119.57320 7760 ft 300 kts 300°
2026-05-04 03:25 -5.36186 119.55490 7346 ft 300 kts 300°
2026-05-04 03:25 -5.35181 119.53653 6933 ft 301 kts 300°
2026-05-04 03:25 -5.34185 119.51828 6511 ft 293 kts 299°
2026-05-04 03:25 -5.33225 119.50065 6103 ft 282 kts 299°
2026-05-04 03:26 -5.32300 119.48380 5711 ft 270 kts 303°
2026-05-04 03:26 -5.31144 119.46958 5347 ft 257 kts 320°
2026-05-04 03:26 -5.29711 119.45959 5017 ft 246 kts 335°
2026-05-04 03:26 -5.28136 119.45396 4666 ft 238 kts 349°
2026-05-04 03:27 -5.26480 119.45250 4067 ft 241 kts
2026-05-04 03:27 -5.24829 119.45553 3476 ft 239 kts 20°
2026-05-04 03:27 -5.23369 119.46249 3104 ft 220 kts 31°
2026-05-04 03:27 -5.22093 119.46985 2831 ft 206 kts 31°
2026-05-04 03:28 -5.20871 119.47688 2584 ft 198 kts 31°
2026-05-04 03:28 -5.19727 119.48348 2337 ft 181 kts 31°
2026-05-04 03:28 -5.18671 119.48956 2111 ft 170 kts 31°
2026-05-04 03:28 -5.17674 119.49531 1892 ft 162 kts 30°
2026-05-04 03:29 -5.16718 119.50083 1710 ft 153 kts 30°
2026-05-04 03:29 -5.15815 119.50604 1497 ft 147 kts 30°
2026-05-04 03:29 -5.14935 119.51111 1304 ft 145 kts 30°
2026-05-04 03:29 -5.14063 119.51614 1118 ft 144 kts 30°
2026-05-04 03:30 -5.13194 119.52115 943 ft 144 kts 30°
2026-05-04 03:30 -5.12328 119.52613 770 ft 144 kts 29°
2026-05-04 03:30 -5.11462 119.53113 600 ft 143 kts 30°
2026-05-04 03:30 -5.10594 119.53610 399 ft 143 kts 30°
2026-05-04 03:31 -5.09734 119.54109 218 ft 143 kts 31°
2026-05-04 03:31 -5.08866 119.54612 49 ft 140 kts 32°
2026-05-04 03:31 -5.08152 119.55029 40 ft 94 kts 30°
2026-05-04 03:31 -5.07734 119.55272 40 ft 45 kts 30°
2026-05-04 03:32 -5.07492 119.55400 41 ft 38 kts 19°
2026-05-04 03:32 -5.07310 119.55427 40 ft 16 kts
2026-05-04 03:32 -5.07225 119.55425 40 ft 9 kts 340°
2026-05-04 03:32 -5.07207 119.55381 41 ft 7 kts 259°
2026-05-04 03:33 -5.07229 119.55350 40 ft 5 kts 212°
2026-05-04 03:33 -5.07265 119.55329 41 ft 9 kts 207°
2026-05-04 03:33 -5.07338 119.55291 41 ft 15 kts 207°
2026-05-04 03:33 -5.07440 119.55232 41 ft 18 kts 210°
2026-05-04 03:34 -5.07548 119.55169 41 ft 15 kts 210°
2026-05-04 03:34 -5.07615 119.55111 41 ft 11 kts 251°
2026-05-04 03:34 -5.07596 119.55042 40 ft 10 kts 299°
2026-05-04 03:34 -5.07583 119.54979 41 ft 9 kts 263°
2026-05-04 03:35 -5.07597 119.54924 41 ft 8 kts 237°
2026-05-04 03:35 -5.07635 119.54892 41 ft 7 kts 212°
2026-05-04 03:35 -5.07671 119.54870 41 ft 6 kts 211°
2026-05-04 03:35 -5.07702 119.54851 41 ft 6 kts 211°
2026-05-04 03:36 -5.07737 119.54830 41 ft 5 kts 210°
2026-05-04 03:36 -5.07767 119.54816 41 ft 4 kts 207°
2026-05-04 03:36 -5.07786 119.54798 41 ft 3 kts 259°
2026-05-04 03:36 -5.07782 119.54778 41 ft 4 kts 290°
2026-05-04 03:37 -5.07769 119.54759 40 ft 3 kts 302°
2026-05-04 03:37 -5.07760 119.54743 41 ft 2 kts 300°
2026-05-04 03:37 -5.07759 119.54741 41 ft 0 kts 300°